Location: Little Elm
(33.1626°N, 96.9375°W)
Time: 15:26:16
(UTC+00:00)

Cosmos 1515 Rocket - Visible Passes

Search period start: 03 July 2022 00:00
Search period end: 13 July 2022 00:00
Orbit: 606 x 629 km, 82.5° (Epoch: 02 July)

Date Brightness Start Highest point End Pass type
(mag) Time Alt. Az. Time Alt. Az. Time Alt. Az.
03 Jul 5.7 08:36:38 10° NNE 08:40:04 22° ENE 08:42:28 15° ESE visible
03 Jul 4.8 10:14:21 10° NW 10:17:45 22° W 10:19:32 17° WSW visible
04 Jul 4.5 08:52:53 10° N 08:57:04 43° E 08:58:35 31° SE visible
04 Jul 5.5 10:33:00 10° WNW 10:34:23 11° W 10:35:40 10° WSW visible
05 Jul 3.4 09:09:35 10° N 09:13:58 89° ENE 09:14:46 59° S visible
06 Jul 6.3 07:51:13 10° NE 07:52:45 12° ENE 07:53:55 11° E visible
06 Jul 3.9 09:26:38 10° NNW 09:30:47 44° W 09:31:00 43° W visible
07 Jul 5.5 08:06:25 10° NNE 08:09:51 22° ENE 08:10:12 22° E visible
07 Jul 4.9 09:44:09 10° NW 09:47:17 22° W 09:47:17 22° W visible
08 Jul 4.5 08:22:40 10° N 08:26:30 43° ENE 08:26:30 43° ENE visible
08 Jul 5.7 10:02:52 10° WNW 10:03:36 11° WNW 10:03:36 11° WNW visible
09 Jul 4.0 08:39:23 10° N 08:42:52 57° N 08:42:52 57° N visible
10 Jul 6.3 07:20:57 10° NE 07:22:09 12° ENE 07:22:09 12° ENE visible
10 Jul 4.6 08:56:26 10° NNW 08:59:15 33° NW 08:59:15 33° NW visible
11 Jul 5.8 07:36:11 10° NNE 07:38:34 21° NE 07:38:34 21° NE visible
11 Jul 5.4 09:13:57 10° NW 09:15:40 18° WNW 09:15:40 18° WNW visible
12 Jul 5.3 07:52:27 10° N 07:55:01 30° NNE 07:55:01 30° NNE visible
